Location: *
(51.5000°N, 0.1100°W)
Time: 05:25:19
(UTC+00:00)

IDEFIX/ARIANE 42P - Pass Details

Date: 08 August 2024
Orbit: 782 x 799 km, 98.5° (Epoch: 08 September)

Event Time Altitude Azimuth Distance (km) Brightness Sun altitude
Rises 00:18:41 0° 28° (NNE) 3,283 6.9 -22.4°
Reaches altitude 10° 00:22:04 10° 51° (NE) 2,349 5.6 -22.4°
Maximum altitude 00:25:01 15° 86° (E) 2,009 4.7 -22.3°
Enters shadow 00:27:15 12° 114° (ESE) 2,210 4.7 -22.3°
